Location: Dalton
(42.4737°N, 73.1662°W)
Time: 17:08:41
(UTC+00:00)

Envisat - Pass Details

Date: 23 September 2024
Orbit: 762 x 764 km, 98.3° (Epoch: 09 October)

Event Time Altitude Azimuth Distance (km) Brightness Sun altitude
Rises 07:26:00 0° 21° (NNE) 3,234 7.0 -34.5°
Reaches altitude 10° 07:28:28 10° 29° (NNE) 2,304 6.2 -34.1°
Enters shadow 07:32:30 36° 78° (ENE) 1,185 4.3 -33.6°
